Weather History for Dallas/Ft Worth, TX

Change the Weather History Date:

Wednesday, May 9, 2012

  Actual Average Record
Temperature  
Mean Temperature 72 °F 72 °F  
Max Temperature 83 °F 82 °F 97 °F (1952)
Min Temperature 61 °F 62 °F 46 °F (1969)
Degree Days  
Heating Degree Days 0 0  
Month to date heating degree days 0 6  
Since 1 July heating degree days 1777 2282  
Cooling Degree Days 7 7  
Month to date cooling degree days 120 57  
Year to date cooling degree days 399 195  
Growing Degree Days 22 (Base 50)    
Moisture  
Dew Point 50 °F    
Average Humidity 54    
Maximum Humidity 84    
Minimum Humidity 24    
Precipitation  
Precipitation 0.00 in 0.15 in 1.47 in (1920)
Month to date precipitation T 1.41  
Year to date precipitation 18.04 12.76  
Sea Level Pressure  
Sea Level Pressure 29.99 in    
Wind  
Wind Speed 6 mph (NE)    
Max Wind Speed 16 mph    
Max Gust Speed 22 mph    
Visibility 10 miles    
Events      
T = Trace of Precipitation, MM = Missing Value Source: NWS Daily Summary

Daily Weather History Graph

Daily Weather History Graph

Search for Another Location

Airport:

Trip Planner

Search our weather history database for the weather conditions in past years. The results will help you decide how hot, cold, wet, or windy it might be!

Date:

Astronomy

May. 09, 2012 Rise Set
Actual Time 6:33 AM CDT 8:16 PM CDT
Civil Twilight 6:06 AM CDT 8:43 PM CDT
Nautical Twilight 5:33 AM CDT 9:15 PM CDT
Astronomical Twilight 4:59 AM CDT 9:49 PM CDT
Moon No Moon Rise 9:52 AM CDT (5/9)
Length of Visible Light 14h 37m
Length of Day
13h 43m
Waning Gibbous, 82% of the Moon is Illuminated
May 9
Waning Gibbous
May 12
Last Quarter
May 20
New
May 28
First Quarter
Jun 4
Full

Hourly Weather History & Observations

Time (CDT) Temp. Dew Point Humidity Pressure Visibility Wind Dir Wind Speed Gust Speed Precip Events Conditions
12:53 AM 68.0 °F 55.0 °F 63% 30.01 in 10.0 mi North 9.2 mph - N/A   Mostly Cloudy
1:53 AM 66.9 °F 55.0 °F 66% 30.00 in 10.0 mi NNE 9.2 mph - N/A   Mostly Cloudy
2:53 AM 66.0 °F 57.0 °F 73% 29.99 in 10.0 mi NNE 5.8 mph - N/A   Mostly Cloudy
3:53 AM 64.9 °F 57.0 °F 75% 30.00 in 10.0 mi North 8.1 mph - N/A   Mostly Cloudy
4:53 AM 64.9 °F 57.0 °F 75% 30.00 in 10.0 mi North 6.9 mph - N/A   Mostly Cloudy
5:53 AM 64.0 °F 55.9 °F 75% 30.02 in 10.0 mi North 6.9 mph - N/A   Mostly Cloudy
6:53 AM 61.0 °F 55.0 °F 81% 30.03 in 10.0 mi North 4.6 mph - N/A   Mostly Cloudy
7:53 AM 64.9 °F 55.0 °F 70% 30.04 in 10.0 mi North 6.9 mph - N/A   Mostly Cloudy
8:53 AM 68.0 °F 54.0 °F 61% 30.05 in 10.0 mi NNE 9.2 mph - N/A   Mostly Cloudy
9:53 AM 72.0 °F 54.0 °F 53% 30.05 in 10.0 mi NNE 10.4 mph - N/A   Mostly Cloudy
10:53 AM 75.0 °F 52.0 °F 44% 30.05 in 10.0 mi North 8.1 mph - N/A   Mostly Cloudy
11:53 AM 78.1 °F 46.9 °F 33% 30.04 in 10.0 mi ENE 8.1 mph 16.1 mph N/A   Scattered Clouds
12:53 PM 79.0 °F 44.1 °F 29% 30.02 in 10.0 mi ENE 8.1 mph 18.4 mph N/A   Partly Cloudy
1:53 PM 81.0 °F 45.0 °F 28% 30.00 in 10.0 mi ENE 10.4 mph 18.4 mph N/A   Partly Cloudy
2:53 PM 81.0 °F 41.0 °F 24% 29.98 in 10.0 mi ENE 5.8 mph - N/A   Clear
3:53 PM 82.0 °F 45.0 °F 27% 29.96 in 10.0 mi ENE 10.4 mph 16.1 mph N/A   Clear
4:53 PM 81.0 °F 43.0 °F 26% 29.93 in 10.0 mi East 4.6 mph - N/A   Clear
5:53 PM 82.0 °F 42.1 °F 24% 29.92 in 10.0 mi NE 5.8 mph - N/A   Clear
6:53 PM 80.1 °F 43.0 °F 27% 29.92 in 10.0 mi ENE 10.4 mph - N/A   Clear
7:53 PM 75.9 °F 44.1 °F 32% 29.92 in 10.0 mi East 6.9 mph - N/A   Clear
8:53 PM 73.9 °F 45.0 °F 35% 29.94 in 10.0 mi Calm Calm - N/A   Partly Cloudy
9:53 PM 72.0 °F 44.1 °F 37% 29.95 in 10.0 mi ESE 4.6 mph - N/A   Partly Cloudy
10:53 PM 70.0 °F 46.0 °F 42% 29.96 in 10.0 mi ESE 3.5 mph - N/A   Clear
11:53 PM 69.1 °F 46.9 °F 45% 29.95 in 10.0 mi Calm Calm - N/A   Clear